Home > Weather > Hannover > Past weeks

Flag for Germany Weather for the Past 2 Weeks in Hannover, Lower Saxony, Germany

Now
46 °F

Clear.


Feels Like: 42 °F
Forecast: 44 / 50 °F
Wind: 9 mph from Southwest

Location: Hannover

Current Time: Feb 7, 2016 at 7:28:22 PM

Latest Report: Feb 7, 2016 at 6:50 PM


Visibility: 10 mi

Pressure: 29.59 "Hg

Humidity: 76%

Dew point: 39 °F

Location of HannoverLocation

Historic Weather in Hannover — Graph

°F

Hannover Temperature Yesterday

Maximum temperature yesterday: 52 °F (at 12:20 PM)
Minimum temperature yesterday: 46 °F (at 6:20 AM)
Average temperature yesterday: 49 °F

High & Low Weather Summary for the Past Weeks

 TemperatureHumidityPressure
High55 °F (Feb 7, 11:50 AM)100% (Jan 23, 6:20 PM)30.51 "Hg (Jan 23, 6:20 PM)
Low36 °F (Jan 30, 7:20 PM)59% (Feb 7, 11:50 AM)29.47 "Hg (Feb 7, 9:50 AM)
Average45 °F85%29.98 "Hg
* Reported Jan 23 6:20 PM — Feb 7 6:20 PM, Hannover, Weather by CustomWeather, © 2016

Note: Actual official high and low records may vary slightly from our data, if they occured in-between our weather recording intervals... More about our weather records

Advertising

Hannover Weather History for the Previous 24 Hours

 ConditionsComfort  
Time TempWeatherWind HumidityBarometerVisibility
6:20 PM
Sun, Feb 7
48 °FPartly cloudy.12 mph71%29.56 "HgN/A
5:50 PM46 °FPassing clouds.10 mph76%29.56 "HgN/A
5:20 PM48 °FPartly cloudy.10 mph76%29.56 "HgN/A
4:20 PM50 °FBroken clouds.13 mph71%29.53 "HgN/A
3:50 PM50 °FPartly sunny.13 mph76%29.53 "HgN/A
3:20 PM50 °FPartly sunny.13 mph76%29.53 "HgN/A
2:50 PM50 °FPartly sunny.12 mph76%29.53 "HgN/A
2:20 PM50 °FLight rain. Partly sunny.12 mph76%29.50 "HgN/A
1:50 PM50 °FPartly sunny.13 mph76%29.50 "HgN/A
1:20 PM52 °FPartly sunny.14 mph72%29.50 "HgN/A
12:50 PM54 °FPartly sunny.18 mph67%29.50 "HgN/A
12:20 PM54 °FPartly sunny.17 mph63%29.50 "HgN/A
11:50 AM55 °FPartly sunny.16 mph59%29.47 "HgN/A
11:20 AM54 °FSunny.15 mph63%29.47 "Hg10 mi
10:50 AM52 °FSunny.13 mph67%29.47 "Hg10 mi
10:20 AM50 °FSunny.15 mph67%29.47 "Hg10 mi
9:50 AM50 °FSunny.14 mph67%29.47 "Hg10 mi
9:20 AM48 °FSunny.13 mph71%29.50 "Hg10 mi
8:50 AM48 °FSunny.12 mph71%29.50 "Hg10 mi
8:20 AM48 °FSunny.15 mph71%29.50 "Hg10 mi
7:50 AM48 °FClear.13 mph71%29.50 "Hg10 mi
7:20 AM46 °FClear.10 mph76%29.50 "Hg10 mi
6:50 AM48 °FClear.13 mph71%29.50 "Hg10 mi
6:20 AM48 °FClear.14 mph71%29.50 "Hg10 mi
5:50 AM48 °FClear.13 mph71%29.53 "Hg10 mi
5:20 AM48 °FClear.13 mph71%29.53 "Hg10 mi
4:20 AM50 °FClear.14 mph67%29.56 "Hg10 mi
3:50 AM50 °FClear.14 mph67%29.56 "Hg10 mi
3:20 AM50 °FClear.12 mph67%29.56 "Hg10 mi
2:20 AM46 °FPassing clouds.5 mph76%29.59 "HgN/A
1:50 AM46 °FPassing clouds.3 mph76%29.59 "HgN/A
1:20 AM46 °FClear.7 mph76%29.62 "Hg10 mi
12:50 AM46 °FClear.7 mph76%29.62 "Hg10 mi
12:20 AM48 °FClear.13 mph71%29.65 "Hg10 mi
11:50 PM
Sat, Feb 6
48 °FClear.14 mph71%29.65 "Hg10 mi
11:20 PM48 °FClear.13 mph71%29.65 "Hg10 mi
10:50 PM48 °FClear.14 mph71%29.65 "Hg10 mi
9:50 PM50 °FPassing clouds.5 mph71%29.68 "HgN/A
9:20 PM52 °FPassing clouds.14 mph67%29.68 "HgN/A
8:50 PM50 °FClear.16 mph71%29.68 "Hg10 mi
8:20 PM50 °FClear.16 mph71%29.71 "Hg10 mi
7:50 PM50 °FClear.15 mph71%29.71 "Hg10 mi
7:20 PM50 °FClear.13 mph71%29.71 "Hg10 mi
Weather by CustomWeather, © 2016

See weather overviewHow to use our weather pages